Weather History for KEDJ - March, 2014

Change the Weather History Date:

Monday, March 10, 2014

  Actual Average (KDAY) Record (KDAY)
Temperature  
Mean Temperature 45 °F 38 °F  
Max Temperature 57 °F 47 °F 76 °F (2009)
Min Temperature 33 °F 29 °F 7 °F (1984)
Degree Days  
Heating Degree Days 20 27  
Month to date heating degree days 285  
Since 1 July heating degree days 4560  
Cooling Degree Days 0 0  
Month to date cooling degree days 0  
Year to date cooling degree days 0  
Moisture  
Dew Point 34 °F    
Average Humidity 72    
Maximum Humidity 87    
Minimum Humidity 51    
Precipitation  
Precipitation 0.00 in 0.10 in 1.56 in (1952)
Month to date precipitation 0.93  
Year to date precipitation 5.88  
Snow  
Snow 0.00 in 0.10 in 4.10 in (1949)
Month to date snowfall 1.5  
Since 1 July snowfall 20.8  
Snow Depth -    
Sea Level Pressure  
Sea Level Pressure 29.77 in    
Wind  
Wind Speed 14 mph (SW)    
Max Wind Speed 22 mph    
Max Gust Speed 29 mph    
Visibility 10 miles    
Events      
T = Trace of Precipitation, MM = Missing Value Source: NWS Daily Summary

Daily Weather History Graph

Daily Weather History Graph

Search for Another Location

Airport or City:

Trip Planner

Search our weather history database for the weather conditions in past years. The results will help you decide how hot, cold, wet, or windy it might be!

Date:

Astronomy

Mar. 10, 2014 Rise Set
Actual Time 7:54 AM EDT 7:36 PM EDT
Civil Twilight 7:27 AM EDT 8:03 PM EDT
Nautical Twilight 6:56 AM EDT 8:35 PM EDT
Astronomical Twilight 6:24 AM EDT 9:07 PM EDT
Moon 2:18 PM EDT (3/10) 4:06 AM EDT (3/10)
Length of Visible Light 12h 36m
Length of Day
11h 41m
Waxing Gibbous, 70% of the Moon is Illuminated
Mar 10
Waxing Gibbous
Mar 16
Full
Mar 23
Last Quarter
Mar 30
New
Apr 7
First Quarter

Hourly Weather History & Observations

Time (EDT) Temp. Windchill Dew Point Humidity Pressure Visibility Wind Dir Wind Speed Gust Speed Precip Events Conditions
12:10 AM 35.6 °F 27.1 °F 26.6 °F 70% 29.93 in 10.0 mi SSW 12.7 mph 19.6 mph 0.00 in   Clear
12:30 AM 35.6 °F 27.1 °F 26.6 °F 70% 29.92 in 10.0 mi SSW 12.7 mph - 0.00 in   Clear
12:50 AM 35.6 °F 26.6 °F 26.6 °F 70% 29.91 in 10.0 mi SSW 13.8 mph - 0.00 in   Clear
1:10 AM 35.6 °F 26.6 °F 26.6 °F 70% 29.91 in 10.0 mi SSW 13.8 mph 18.4 mph 0.00 in   Clear
1:30 AM 35.6 °F 27.5 °F 28.4 °F 75% 29.90 in 10.0 mi SSW 11.5 mph - 0.00 in   Clear
1:50 AM 35.6 °F 27.1 °F 28.4 °F 75% 29.89 in 10.0 mi SSW 12.7 mph - 0.00 in   Clear
2:10 AM 35.6 °F 26.2 °F 28.4 °F 75% 29.89 in 10.0 mi SW 15.0 mph 19.6 mph 0.00 in   Clear
2:30 AM 33.8 °F 24.8 °F 28.4 °F 81% 29.88 in 10.0 mi SSW 12.7 mph - 0.00 in   Clear
2:50 AM 33.8 °F 24.3 °F 28.4 °F 81% 29.88 in 10.0 mi SW 13.8 mph - 0.00 in   Clear
3:10 AM 33.8 °F 24.8 °F 28.4 °F 81% 29.87 in 10.0 mi SSW 12.7 mph - 0.00 in   Clear
3:30 AM 33.8 °F 25.3 °F 30.2 °F 87% 29.86 in 10.0 mi SSW 11.5 mph - 0.00 in   Clear
3:50 AM 33.8 °F 25.3 °F 30.2 °F 87% 29.84 in 10.0 mi SW 11.5 mph - 0.00 in   Clear
4:10 AM 33.8 °F 24.8 °F 30.2 °F 87% 29.84 in 10.0 mi SW 12.7 mph - 0.00 in   Clear
4:30 AM 33.8 °F 24.3 °F 30.2 °F 87% 29.83 in 10.0 mi SW 13.8 mph - 0.00 in   Clear
4:50 AM 33.8 °F 24.3 °F 30.2 °F 87% 29.83 in 10.0 mi SSW 13.8 mph - 0.00 in   Clear
5:10 AM 33.8 °F 24.8 °F 30.2 °F 87% 29.82 in 10.0 mi SSW 12.7 mph - 0.00 in   Clear
5:30 AM 33.8 °F 24.3 °F 30.2 °F 87% 29.82 in 10.0 mi SSW 13.8 mph - 0.00 in   Clear
5:50 AM 35.6 °F 26.6 °F 32.0 °F 87% 29.82 in 10.0 mi SSW 13.8 mph 19.6 mph 0.00 in   Clear
6:10 AM 35.6 °F 26.6 °F 32.0 °F 87% 29.81 in 10.0 mi SSW 13.8 mph - 0.00 in   Clear
6:30 AM 35.6 °F 26.6 °F 32.0 °F 87% 29.80 in 10.0 mi SSW 13.8 mph 18.4 mph 0.00 in   Clear
6:50 AM 35.6 °F 26.2 °F 32.0 °F 87% 29.80 in 10.0 mi SSW 15.0 mph - 0.00 in   Clear
7:10 AM 37.4 °F 28.5 °F 32.0 °F 81% 29.79 in 10.0 mi SSW 15.0 mph - 0.00 in   Clear
7:30 AM 37.4 °F 29.3 °F 32.0 °F 81% 29.79 in 10.0 mi SW 12.7 mph 19.6 mph 0.00 in   Clear
7:50 AM 37.4 °F 28.9 °F 32.0 °F 81% 29.80 in 10.0 mi SW 13.8 mph - 0.00 in   Clear
8:10 AM 37.4 °F 29.8 °F 32.0 °F 81% 29.80 in 8.0 mi SW 11.5 mph - 0.00 in   Clear
8:30 AM 37.4 °F 30.8 °F 32.0 °F 81% 29.81 in 8.0 mi SW 9.2 mph - 0.00 in   Clear
8:50 AM 37.4 °F 30.3 °F 32.0 °F 81% 29.81 in 8.0 mi SSW 10.4 mph - 0.00 in   Partly Cloudy
9:05 AM 37.4 °F 30.3 °F 32.0 °F 81% 29.81 in 8.0 mi SSW 10.4 mph - 0.00 in   Mostly Cloudy
9:30 AM 37.4 °F 30.3 °F 32.0 °F 81% 29.81 in 8.0 mi SSW 10.4 mph - 0.00 in   Mostly Cloudy
9:50 AM 39.2 °F 31.6 °F 32.0 °F 75% 29.81 in 9.0 mi SSW 12.7 mph - 0.00 in   Partly Cloudy
10:10 AM 39.2 °F 32.0 °F 32.0 °F 75% 29.80 in 8.0 mi SW 11.5 mph - 0.00 in   Clear
10:30 AM 39.2 °F 30.5 °F 33.8 °F 81% 29.79 in 8.0 mi SSW 16.1 mph - 0.00 in   Clear
10:50 AM 39.2 °F 30.8 °F 33.8 °F 81% 29.79 in 8.0 mi SSW 15.0 mph - 0.00 in   Clear
11:10 AM 42.8 °F 35.1 °F 33.8 °F 70% 29.79 in 8.0 mi SSW 16.1 mph - 0.00 in   Clear
11:30 AM 42.8 °F 35.8 °F 33.8 °F 70% 29.79 in 9.0 mi SW 13.8 mph 21.9 mph 0.00 in   Clear
11:50 AM 44.6 °F 38.1 °F 33.8 °F 66% 29.79 in 9.0 mi SW 13.8 mph 21.9 mph 0.00 in   Clear
12:10 PM 44.6 °F 36.9 °F 35.6 °F 71% 29.79 in 8.0 mi SW 18.4 mph 24.2 mph 0.00 in   Partly Cloudy
12:30 PM 46.4 °F 39.2 °F 35.6 °F 66% 29.77 in 8.0 mi SW 18.4 mph 25.3 mph 0.00 in   Partly Cloudy
12:50 PM 46.4 °F 39.0 °F 37.4 °F 71% 29.77 in 8.0 mi SSW 19.6 mph 24.2 mph 0.00 in   Clear
1:10 PM 46.4 °F 39.0 °F 37.4 °F 71% 29.78 in 8.0 mi SSW 19.6 mph - 0.00 in   Clear
1:30 PM 48.2 °F - 37.4 °F 66% 29.77 in 8.0 mi SSW 20.7 mph 24.2 mph 0.00 in   Partly Cloudy
1:50 PM 50.0 °F - 37.4 °F 62% 29.76 in 8.0 mi SW 15.0 mph 23.0 mph 0.00 in   Clear
2:10 PM 51.8 °F - 39.2 °F 62% 29.74 in 9.0 mi SSW 18.4 mph - 0.00 in   Clear
2:30 PM 51.8 °F - 37.4 °F 58% 29.73 in 9.0 mi SW 17.3 mph 23.0 mph 0.00 in   Clear
2:50 PM 51.8 °F - 37.4 °F 58% 29.72 in 9.0 mi SW 19.6 mph 27.6 mph 0.00 in   Clear
3:10 PM 53.6 °F - 39.2 °F 58% 29.70 in 9.0 mi SSW 21.9 mph 25.3 mph 0.00 in   Clear
3:30 PM 53.6 °F - 39.2 °F 58% 29.69 in 9.0 mi SSW 20.7 mph 27.6 mph 0.00 in   Clear
3:50 PM 55.4 °F - 39.2 °F 54% 29.68 in 10.0 mi SW 19.6 mph - 0.00 in   Clear
4:10 PM 55.4 °F - 39.2 °F 54% 29.68 in 10.0 mi SSW 20.7 mph 26.5 mph 0.00 in   Clear
4:30 PM 57.2 °F - 39.2 °F 51% 29.67 in 10.0 mi SSW 20.7 mph 24.2 mph 0.00 in   Clear
4:50 PM 57.2 °F - 39.2 °F 51% 29.67 in 10.0 mi SSW 20.7 mph 26.5 mph 0.00 in   Clear
5:10 PM 57.2 °F - 39.2 °F 51% 29.66 in 10.0 mi SW 21.9 mph 28.8 mph 0.00 in   Clear
5:30 PM 57.2 °F - 39.2 °F 51% 29.66 in 10.0 mi SW 20.7 mph 25.3 mph 0.00 in   Clear
5:50 PM 57.2 °F - 39.2 °F 51% 29.66 in 10.0 mi SW 20.7 mph 27.6 mph 0.00 in   Clear
6:10 PM 55.4 °F - 39.2 °F 54% 29.66 in 10.0 mi SW 19.6 mph 25.3 mph 0.00 in   Clear
6:30 PM 55.4 °F - 39.2 °F 54% 29.66 in 10.0 mi SW 15.0 mph 23.0 mph 0.00 in   Clear
6:50 PM 53.6 °F - 39.2 °F 58% 29.67 in 10.0 mi SW 13.8 mph - 0.00 in   Clear
7:10 PM 51.8 °F - 39.2 °F 62% 29.67 in 10.0 mi SSW 11.5 mph - 0.00 in   Clear
7:30 PM 50.0 °F - 39.2 °F 66% 29.68 in 10.0 mi SW 12.7 mph - 0.00 in   Clear
7:50 PM 48.2 °F - 37.4 °F 66% 29.68 in 10.0 mi SW 9.2 mph - 0.00 in   Clear
8:10 PM 50.0 °F - 37.4 °F 62% 29.69 in 10.0 mi SW 8.1 mph - 0.00 in   Clear
8:30 PM 48.2 °F - 37.4 °F 66% 29.70 in 10.0 mi SW 6.9 mph - 0.00 in   Clear
8:50 PM 46.4 °F 43.5 °F 37.4 °F 71% 29.70 in 10.0 mi SW 5.8 mph - 0.00 in   Clear
9:10 PM 42.8 °F 38.6 °F 35.6 °F 76% 29.70 in 10.0 mi SW 6.9 mph - 0.00 in   Clear
9:30 PM 42.8 °F 38.6 °F 35.6 °F 76% 29.71 in 10.0 mi SW 6.9 mph - 0.00 in   Clear
9:50 PM 42.8 °F 38.6 °F 35.6 °F 76% 29.71 in 10.0 mi SW 6.9 mph - 0.00 in   Clear
10:10 PM 42.8 °F 38.6 °F 35.6 °F 76% 29.71 in 10.0 mi SW 6.9 mph - 0.00 in   Clear
10:30 PM 41.0 °F 35.8 °F 35.6 °F 81% 29.71 in 10.0 mi SSW 8.1 mph - 0.00 in   Clear
10:50 PM 42.8 °F 37.5 °F 37.4 °F 81% 29.70 in 10.0 mi SSW 9.2 mph - 0.00 in   Clear
11:10 PM 44.6 °F 39.7 °F 37.4 °F 76% 29.70 in 10.0 mi SSW 9.2 mph - 0.00 in   Clear
11:30 PM 42.8 °F 38.6 °F 37.4 °F 81% 29.70 in 10.0 mi SSW 6.9 mph - 0.00 in   Clear
11:50 PM 42.8 °F 38.6 °F 37.4 °F 81% 29.70 in 10.0 mi SW 6.9 mph - 0.00 in   Clear